Location: �bnet
(46.9957°N, 8.4908°E)
Time: 00:51:36
(UTC+00:00)

Cosmos 2150 Rocket - Pass Details

Date: 11 May 2021
Orbit: 750 x 807 km, 74.0° (Epoch: 23 June)

Event Time Altitude Azimuth Distance (km) Brightness Sun altitude
Exits shadow 23:04:32 56° 116° (ESE) 931 4.2 -24.7°
Maximum altitude 23:04:45 57° 107° (ESE) 927 4.2 -24.8°
Drops below altitude 10° 23:09:56 10° 30° (NNE) 2,335 7.2 -24.8°
Sets 23:12:20 0° 26° (NNE) 3,257 8.2 -24.8°
